Location: Recife
(8.0585°S, 34.8848°W)
Time: 11:05:01
(UTC-03:00)

Courier 1B - Pass Details

Date: 17 April 2026
Orbit: 962 x 1209 km, 28.3° (Epoch: 15 May)

Event Time Altitude Azimuth Distance (km) Brightness Sun altitude
Exits shadow 01:50:04 11° 59° (ENE) 2,907 10.3 -52.7°
Drops below altitude 10° 01:50:34 10° 62° (ENE) 2,991 10.4 -52.6°
Sets 01:54:56 0° 84° (E) 4,007 11.3 -51.5°
